| time (UTC) | temp F | wind direction | speed knots | gust knots | rain 1hr in | rain 24hr in | rain mn in | humidity % | barometer mb |
| 20260503193016 | 79 | 0.0 | 0.0 | 0.00 | 0.00 | 0.00 | 50 | 1012.6 | |
| 20260503192036 | 78 | 0.0 | 0.0 | 0.00 | 0.00 | 0.00 | 51 | 1012.7 | |
| 20260503191016 | 78 | 0.0 | 0.0 | 0.00 | 0.00 | 0.00 | 51 | 1012.9 | |
| 20260503190016 | 77 | 0.0 | 0.0 | 0.00 | 0.00 | 0.00 | 53 | 1013.0 | |
| 20260503185017 | 76 | 0.0 | 0.0 | 0.00 | 0.00 | 0.00 | 53 | 1013.1 | |
| 20260503184016 | 76 | 0.0 | 0.0 | 0.00 | 0.00 | 0.00 | 54 | 1013.1 | |
| 20260503183037 | 74 | 0.0 | 0.0 | 0.00 | 0.00 | 0.00 | 58 | 1013.2 | |
| 20260503182016 | 73 | 0.0 | 0.0 | 0.00 | 0.00 | 0.00 | 55 | 1013.2 | |
| 20260503181016 | 73 | 0.0 | 0.0 | 0.00 | 0.00 | 0.00 | 57 | 1013.4 | |
| 20260503180036 | 73 | 0.0 | 0.0 | 0.00 | 0.00 | 0.00 | 59 | 1013.4 | |
| 20260503175016 | 72 | 0.0 | 0.0 | 0.00 | 0.00 | 0.00 | 60 | 1013.6 | |
| 20260503174037 | 71 | 0.0 | 0.0 | 0.00 | 0.00 | 0.00 | 61 | 1013.5 | |
| 20260503173038 | 70 | 0.0 | 0.0 | 0.00 | 0.00 | 0.00 | 62 | 1013.5 | |
| 20260503172037 | 69 | 0.0 | 0.0 | 0.00 | 0.00 | 0.00 | 64 | 1013.6 | |
| 20260503171016 | 68 | 0.0 | 0.0 | 0.00 | 0.00 | 0.00 | 67 | 1013.6 | |
| 20260503131016 | 54 | 0.0 | 0.0 | 0.00 | 0.00 | 0.00 | 88 | 1013.5 | |
| 20260503081015 | 58 | 0.0 | 0.0 | 0.00 | 0.00 | 0.00 | 83 | 1014.1 | |
| 20260503072036 | 60 | 0.0 | 0.0 | 0.00 | 0.00 | 0.00 | 82 | 1014.1 | |
| 20260503071016 | 60 | 0.0 | 0.0 | 0.00 | 0.00 | 0.00 | 81 | 1014.1 | |
| 20260503055037 | 63 | 0.0 | 0.0 | 0.00 | 0.00 | 0.00 | 73 | 1013.7 | |
| 20260503054036 | 63 | 0.0 | 0.0 | 0.00 | 0.00 | 0.00 | 72 | 1013.7 | |
| 20260503053016 | 64 | 0.0 | 0.0 | 0.00 | 0.00 | 0.00 | 71 | 1013.8 | |
| 20260503052016 | 64 | 0.0 | 0.0 | 0.00 | 0.00 | 0.00 | 70 | 1013.7 | |
| 20260503051016 | 65 | 0.0 | 0.9 | 0.00 | 0.00 | 0.00 | 68 | 1013.7 | |
| 20260503050016 | 65 | 0.0 | 0.0 | 0.00 | 0.00 | 0.00 | 67 | 1013.6 | |
| 20260503045056 | 66 | 0.0 | 1.7 | 0.00 | 0.00 | 0.00 | 65 | 1013.5 | |
| 20260503044016 | 66 | 0.0 | 1.7 | 0.00 | 0.00 | 0.00 | 65 | 1013.4 | |
| 20260503043017 | 66 | 0.0 | 0.9 | 0.00 | 0.00 | 0.00 | 64 | 1013.4 | |
| 20260503042016 | 67 | 0.0 | 1.7 | 0.00 | 0.00 | 0.00 | 64 | 1013.2 | |
| 20260503041017 | 67 | 0 | 0.9 | 2.6 | 0.00 | 0.00 | 0.00 | 63 | 1013.1 |
| 20260503040016 | 68 | 338 | 1.7 | 3.5 | 0.00 | 0.00 | 0.00 | 62 | 1012.9 |
| 20260503035016 | 68 | 338 | 2.6 | 5.2 | 0.00 | 0.00 | 0.00 | 61 | 1012.8 |
| 20260503034016 | 69 | 338 | 3.5 | 5.2 | 0.00 | 0.00 | 0.00 | 61 | 1012.6 |
| 20260503033036 | 69 | 338 | 3.5 | 6.1 | 0.00 | 0.00 | 0.00 | 60 | 1012.5 |
| 20260503032016 | 70 | 338 | 2.6 | 4.3 | 0.00 | 0.00 | 0.00 | 60 | 1012.4 |
| 20260503031016 | 70 | 338 | 2.6 | 6.1 | 0.00 | 0.00 | 0.00 | 59 | 1012.2 |
| 20260503030037 | 71 | 338 | 1.7 | 6.1 | 0.00 | 0.00 | 0.00 | 59 | 1012.2 |
| 20260503025016 | 71 | 338 | 0.9 | 3.5 | 0.00 | 0.00 | 0.00 | 58 | 1012.1 |
| 20260503024059 | 72 | 0.0 | 2.6 | 0.00 | 0.00 | 0.00 | 59 | 1012.1 | |
| 20260503023036 | 72 | 338 | 0.9 | 2.6 | 0.00 | 0.00 | 0.00 | 57 | 1012.1 |
| 20260503022016 | 72 | 338 | 1.7 | 5.2 | 0.00 | 0.00 | 0.00 | 57 | 1012.1 |
| 20260503021016 | 73 | 0.0 | 1.7 | 0.00 | 0.00 | 0.00 | 56 | 1012.1 | |
| 20260503020016 | 73 | 338 | 0.9 | 4.3 | 0.00 | 0.00 | 0.00 | 56 | 1012.1 |
| 20260503015016 | 73 | 338 | 1.7 | 5.2 | 0.00 | 0.00 | 0.00 | 55 | 1012.1 |
| 20260503014037 | 73 | 338 | 1.7 | 5.2 | 0.00 | 0.00 | 0.00 | 54 | 1012.1 |
| 20260503013036 | 73 | 338 | 3.5 | 7.0 | 0.00 | 0.00 | 0.00 | 54 | 1012.2 |
| 20260503012016 | 74 | 293 | 0.9 | 5.2 | 0.00 | 0.00 | 0.00 | 54 | 1012.2 |
| 20260503011016 | 74 | 315 | 0.9 | 4.3 | 0.00 | 0.00 | 0.00 | 53 | 1012.3 |
| 20260503010016 | 75 | 315 | 1.7 | 5.2 | 0.00 | 0.00 | 0.00 | 55 | 1012.4 |
| 20260503005016 | 75 | 315 | 0.9 | 7.0 | 0.00 | 0.00 | 0.00 | 53 | 1012.4 |
| 20260503004016 | 75 | 23 | 2.6 | 6.1 | 0.00 | 0.00 | 0.00 | 53 | 1012.5 |
| 20260503003036 | 75 | 270 | 1.7 | 5.2 | 0.00 | 0.00 | 0.00 | 53 | 1012.5 |
| 20260503002016 | 75 | 270 | 0.9 | 3.5 | 0.00 | 0.00 | 0.00 | 54 | 1012.6 |
| 20260503001016 | 75 | 270 | 1.7 | 4.3 | 0.00 | 0.00 | 0.00 | 56 | 1012.6 |
| 20260503000016 | 76 | 270 | 1.7 | 4.3 | 0.00 | 0.00 | 0.00 | 56 | 1012.7 |
| 20260502235017 | 76 | 270 | 1.7 | 4.3 | 0.00 | 0.00 | 0.00 | 58 | 1012.6 |
| 20260502234016 | 76 | 293 | 1.7 | 6.1 | 0.00 | 0.00 | 0.00 | 56 | 1012.9 |
| 20260502233016 | 76 | 270 | 1.7 | 7.0 | 0.00 | 0.00 | 0.00 | 57 | 1013.0 |
| 20260502232016 | 76 | 270 | 1.7 | 4.3 | 0.00 | 0.00 | 0.00 | 56 | 1013.2 |
| 20260502231017 | 76 | 338 | 5.2 | 7.8 | 0.00 | 0.00 | 0.00 | 55 | 1013.3 |
| 20260502230017 | 76 | 270 | 2.6 | 4.3 | 0.00 | 0.00 | 0.00 | 55 | 1013.5 |
| 20260502225017 | 76 | 270 | 2.6 | 6.1 | 0.00 | 0.00 | 0.00 | 57 | 1013.6 |
| 20260502224016 | 76 | 270 | 2.6 | 5.2 | 0.00 | 0.00 | 0.00 | 57 | 1013.8 |
| 20260502223016 | 75 | 293 | 2.6 | 6.1 | 0.00 | 0.00 | 0.00 | 58 | 1013.9 |
| 20260502222016 | 75 | 270 | 1.7 | 3.5 | 0.00 | 0.00 | 0.00 | 55 | 1014.0 |
| 20260502221016 | 76 | 270 | 2.6 | 6.1 | 0.00 | 0.00 | 0.00 | 57 | 1014.0 |
| 20260502220017 | 76 | 293 | 1.7 | 4.3 | 0.00 | 0.00 | 0.00 | 55 | 1014.2 |
| 20260502215016 | 76 | 270 | 3.5 | 6.1 | 0.00 | 0.00 | 0.00 | 57 | 1014.2 |
| 20260502214016 | 75 | 270 | 1.7 | 5.2 | 0.00 | 0.00 | 0.00 | 56 | 1014.3 |
| 20260502213017 | 75 | 270 | 1.7 | 3.5 | 0.00 | 0.00 | 0.00 | 57 | 1014.5 |
| 20260502212016 | 75 | 270 | 2.6 | 6.1 | 0.00 | 0.00 | 0.00 | 59 | 1014.6 |
| 20260502211017 | 74 | 270 | 2.6 | 4.3 | 0.00 | 0.00 | 0.00 | 58 | 1014.6 |
| 20260502210036 | 74 | 270 | 2.6 | 5.2 | 0.00 | 0.00 | 0.00 | 59 | 1014.7 |
| 20260502205017 | 73 | 270 | 2.6 | 5.2 | 0.00 | 0.00 | 0.00 | 59 | 1014.8 |
| 20260502204036 | 72 | 270 | 2.6 | 4.3 | 0.00 | 0.00 | 0.00 | 60 | 1014.9 |
| 20260502203016 | 72 | 270 | 1.7 | 3.5 | 0.00 | 0.00 | 0.00 | 62 | 1014.9 |
| 20260502202016 | 72 | 270 | 1.7 | 4.3 | 0.00 | 0.00 | 0.00 | 61 | 1015.1 |
| 20260502201016 | 72 | 270 | 1.7 | 3.5 | 0.00 | 0.00 | 0.00 | 60 | 1015.2 |
| 20260502200017 | 73 | 270 | 1.7 | 3.5 | 0.00 | 0.00 | 0.00 | 57 | 1015.3 |
| 20260502195017 | 72 | 270 | 1.7 | 3.5 | 0.00 | 0.00 | 0.00 | 58 | 1015.3 |
| 20260502194016 | 71 | 270 | 1.7 | 4.3 | 0.00 | 0.00 | 0.00 | 59 | 1015.4 |